Regional Weather Roundup
Issued by NWS Newport/Morehead, NC

Current Version | Previous Version | Graphics & Text | Print | Product List | Glossary On
Versions: 1 2 3 4 5 6 7 8 9 10 11 12 13 14 15 16 17 18 19 20 21 22 23 24 25 26 27 28 29 30 31 32 33 34 35 36 37 38 39 40 41 42 43 44 45 46 47 48 49 50
000
ASUS42 KMHX 042012
RWRMHX
WEATHER ROUNDUP FOR EASTERN NORTH CAROLINA
NATIONAL WEATHER SERVICE NEWPORT/MOREHEAD CITY NC
400 PM EDT MON MAY 04 2015

NOTE: "FAIR" INDICATES FEW OR NO CLOUDS BELOW 12,000 FEET
WITH NO SIGNIFICANT WEATHER AND/OR OBSTRUCTIONS TO VISIBILITY

NCZ015>017-031-032-045>047-102-103-042100-
NORTH COAST

CITY           SKY/WX    TMP DP  RH WIND       PRES   REMARKS
EDENTON        SUNNY     80  47  30 S7        30.28F
ELIZABETH CITY SUNNY     80  47  31 S12G22    30.28F
KITTY HAWK     MOCLDY    75  56  52 E3        30.29F
MANTEO         PTSUNNY   73  53  49 S15G22    30.30F

$$

NCZ045>047-081-094-103-104-042100-
CENTRAL COAST

CITY           SKY/WX    TMP DP  RH WIND       PRES   REMARKS
FRISCO         SUNNY     70  58  65 S6        30.33F
SWANQUARTER      N/A     77 N/A N/A S10G17    30.27F

$$

NCZ095-097-098-100-101-042100-
SOUTHERN COAST

CITY           SKY/WX    TMP DP  RH WIND       PRES   REMARKS
BEAUFORT       SUNNY     75  51  43 S12       30.33F
CEDAR ISLAND     N/A     79 N/A N/A S12G20    30.36S
JACKSONVILLE   SUNNY     77  55  46 S12G21    30.31F
PINEY ISLAND   CLOUDY   N/A N/A N/A S12       30.32F
WILMINGTON     SUNNY     76  56  49 SE10G22   30.32S


$$

NCZ011>013-027>030-043-044-078>080-089-090>093-098-042100-
COASTAL PLAIN

CITY           SKY/WX    TMP DP  RH WIND       PRES   REMARKS
AHOSKIE        SUNNY     79  49  34 S5        30.27F
CLINTON        PTSUNNY   81  54  39 SW3       30.29F
ELIZABETHTOWN  SUNNY     81  47  30 SW3       30.29F
GOLDSBORO      PTSUNNY   79  48  33 CALM      30.27F
GREENVILLE     MOSUNNY   81  48  32 S9        30.29F
HAVELOCK       SUNNY     77  52  41 S16G23    30.33S
KENANSVILLE    MOSUNNY   81  44  27 S5        30.30F
KINSTON        MOSUNNY   82  45  26 MISG      30.30F
NEW BERN       MOSUNNY   79  48  33 S8        30.31F
RICHLANDS      PTSUNNY   81  52  36 S12       30.31S
ROCKY MOUNT    MOSUNNY   82  51  34 SW10      30.28F
WASHINGTON     MOSUNNY   79  46  31 SW3       30.29F
WHITEVILLE     CLOUDY    78  53  42 S7        30.29F

$$

AMZ130-135-150-152-154-156-158-170-250-252-270-ANZ085-086-088-633-658-670-042100-
MARINE OBSERVATIONS

STATION/POSITION TIME  TEMP    WIND        PRES    WAVE   SWELL
                       AIR SEA DIR/SP/G            HT/PER HT/PER
                 (UTC) (F)     (DEG/KT/KT) (MB)    (FT/S) (FT/S)
CHESAPEAKE LIGHT 1900   64     170/ 17/ 20 1025.9
64 E VA BEACH    1950   63 62  180/  8/ 10 1025.9    4/11   3/11
DUCK             1900   65 58  140/  9/ 10 1025.3
2 E DUCK         1911      61                N/A     3/13   2/13
OREGON INLET     1900   70 65  170/ 12/ 14 1026.8
13E OREGON INLT  2000      56                N/A     2/11   2/11
HATTERAS CG      1900   74 64  180/  4/  8 1027.0
DIAMOND BUOY     1950   73 79  190/  4/  6 1027.3    4/ 9   3/ 9
CAPE LOOKOUT     2000   71     160/  7/  8 1026.8
BEAUFORT LAB     1900   71 66  180/  9/ 10 1026.5
27 SE WRIGHTSVLE NOT AVBL
5 SE WRIGHTSVLE  1908   71 69  160/ 10/ 12 1027.4
225 S CAPE HAT   1950   69 70   90/ 14/ 16 1026.8    5/ 9   3/ 9
41 SE CHARLESTON 1950   73 74   70/ 12/ 14 1026.1    3/11   2/11

$$



USA.gov is the U.S. government's official web portal to all federal, state and local government web resources and services.